User: anonymous   Login
Location: Iola
(37.9240°N, 95.4000°W)
Time: 21:57:44
(UTC-05:00)
Language:

Meteor 2-10 Rocket - Orbit

View from above orbital plane
View from above orbital plane
View from above satellite
View from above satellite

Ground track
Ground track

The orbit data is extracted from the following two-line orbital elements,

1 14453U 83109B   15109.76107725  .00000207  00000-0  78912-4 0  9999
2 14453 081.1682 180.4182 0105042 186.7340 173.2436 14.24587755635121
Epoch (UTC): 19 April 2015 18:15:57
Eccentricity: 0.0105042
inclination: 81.1682°
perigee height: 734 km
apogee height: 885 km
right ascension of ascending node: 180.4182°
argument of perigee: 186.7340°
revolutions per day: 14.24587755
mean anomaly at epoch: 173.2436°
orbit number at epoch: 63512

The dashed part of the orbit path shows where the satellite is in the earth's shadow,  

DLR